Location: Coupvray
(48.8929°N, 2.7967°E)
Time: 23:39:33
(UTC+00:00)

Cosmos 724 - Pass Details

Date: 26 October 2020
Orbit: 851 x 943 km, 65.6° (Epoch: 28 November)

Event Time Altitude Azimuth Distance (km) Brightness Sun altitude
Exits shadow 03:18:39 17° 346° (NNW) 2,137 6.3 -31.2°
Maximum altitude 03:18:59 17° 350° (N) 2,134 6.3 -31.2°
Drops below altitude 10° 03:22:51 10° 30° (NNE) 2,620 7.3 -30.6°
Sets 03:26:25 0° 50° (NE) 3,581 8.4 -30.0°
